• In Czech Republic
  • List of Countries
  • For 7 days
  • Water Temperature
  • Satellite Maps
  • Weather Map
  • Weather Widgets
  • user-avatar
    Login

    Hourly Weather Klajpedka

    Today, 15 July, Sunday

    Time Temperature Precipitation Wind Pressure Humidity
    00:00 +16°C° 0.1 mm 3 mps 734 mmHg 95%
    01:00 +16°C° 0.1 mm 3 mps 734 mmHg 96%
    02:00 +16°C° 0 mm 2 mps 734 mmHg 97%
    03:00 +16°C° 0.7 mm 2 mps 734 mmHg 98%
    04:00 +16°C° 0.7 mm 2 mps 734 mmHg 98%
    05:00 +16°C° 0.7 mm 2 mps 734 mmHg 98%
    06:00 +16°C° 0.7 mm 3 mps 734 mmHg 97%
    07:00 +17°C° 0.7 mm 3 mps 734 mmHg 96%
    08:00 +18°C° 0 mm 3 mps 734 mmHg 95%
    09:00 +19°C° 0.7 mm 3 mps 734 mmHg 91%
    10:00 +20°C° 0.7 mm 3 mps 734 mmHg 87%
    11:00 +21°C° 0.7 mm 3 mps 734 mmHg 83%
    12:00 +22°C° 0.9 mm 4 mps 734 mmHg 80%
    13:00 +23°C° 0.9 mm 4 mps 734 mmHg 78%
    14:00 +23°C° 0 mm 4 mps 735 mmHg 76%
    15:00 +23°C° 0.6 mm 4 mps 735 mmHg 76%
    16:00 +23°C° 0.6 mm 4 mps 735 mmHg 76%
    17:00 +23°C° 0.6 mm 4 mps 735 mmHg 76%
    18:00 +22°C° 0.4 mm 4 mps 734 mmHg 80%
    19:00 +21°C° 0.4 mm 4 mps 734 mmHg 84%
    20:00 +20°C° 0.4 mm 3 mps 734 mmHg 88%
    21:00 +19°C° 0.2 mm 3 mps 734 mmHg 90%
    22:00 +18°C° 0.2 mm 3 mps 734 mmHg 92%
    23:00 +17°C° 0.2 mm 3 mps 735 mmHg 94%

    Tomorrow, 16 July, Monday

    Time Temperature Precipitation Wind Pressure Humidity
    00:00 +17°C° 0 mm 3 mps 734 mmHg 95%
    01:00 +17°C° 0 mm 2 mps 734 mmHg 96%
    02:00 +16°C° 0 mm 2 mps 734 mmHg 96%
    03:00 +16°C° 0.2 mm 2 mps 734 mmHg 97%
    04:00 +16°C° 0.2 mm 2 mps 734 mmHg 97%
    05:00 +16°C° 0.2 mm 2 mps 734 mmHg 97%
    06:00 +17°C° 0.5 mm 2 mps 734 mmHg 96%
    07:00 +18°C° 0.5 mm 2 mps 734 mmHg 95%
    08:00 +19°C° 0.5 mm 2 mps 734 mmHg 94%
    09:00 +20°C° 0.7 mm 2 mps 734 mmHg 91%
    10:00 +21°C° 0.7 mm 2 mps 734 mmHg 87%
    11:00 +22°C° 0.7 mm 3 mps 734 mmHg 83%
    12:00 +22°C° 0.9 mm 3 mps 734 mmHg 84%
    13:00 +22°C° 0.9 mm 3 mps 734 mmHg 84%
    14:00 +22°C° 0.9 mm 3 mps 734 mmHg 85%
    15:00 +22°C° 0.8 mm 3 mps 733 mmHg 86%
    16:00 +22°C° 0.8 mm 3 mps 733 mmHg 87%
    17:00 +22°C° 0.8 mm 3 mps 733 mmHg 88%
    18:00 +21°C° 1.2 mm 3 mps 733 mmHg 90%
    19:00 +20°C° 1.2 mm 3 mps 732 mmHg 92%
    20:00 +19°C° 1.2 mm 3 mps 732 mmHg 93%
    21:00 +19°C° 0.8 mm 3 mps 732 mmHg 94%
    22:00 +19°C° 0.8 mm 3 mps 732 mmHg 94%
    23:00 +19°C° 0.8 mm 3 mps 732 mmHg 94%

    Day after tomorrow, 17 July, Tuesday

    Time Temperature Precipitation Wind Pressure Humidity
    00:00 +18°C° 0.3 mm 3 mps 732 mmHg 95%
    01:00 +18°C° 0.3 mm 3 mps 732 mmHg 96%
    02:00 +18°C° 0.3 mm 3 mps 731 mmHg 96%
    03:00 +18°C° 0 mm 3 mps 731 mmHg 97%
    04:00 +18°C° 0 mm 3 mps 731 mmHg 97%
    05:00 +18°C° 0 mm 3 mps 731 mmHg 97%
    06:00 +18°C° 0 mm 3 mps 731 mmHg 96%
    07:00 +19°C° 0 mm 4 mps 731 mmHg 95%
    08:00 +19°C° 0 mm 4 mps 731 mmHg 94%
    09:00 +21°C° 0.1 mm 4 mps 731 mmHg 91%
    10:00 +22°C° 0.1 mm 4 mps 731 mmHg 87%
    11:00 +23°C° 0.1 mm 4 mps 731 mmHg 84%
    12:00 +23°C° 0.6 mm 4 mps 731 mmHg 82%
    13:00 +25°C° 0.6 mm 4 mps 731 mmHg 81%
    14:00 +26°C° 0.6 mm 5 mps 731 mmHg 80%
    15:00 +26°C° 0.5 mm 4 mps 731 mmHg 81%
    16:00 +26°C° 0.5 mm 4 mps 731 mmHg 82%
    17:00 +26°C° 0.5 mm 4 mps 730 mmHg 83%
    18:00 +25°C° 0.2 mm 4 mps 730 mmHg 85%
    19:00 +23°C° 0.2 mm 4 mps 730 mmHg 87%
    20:00 +22°C° 0.2 mm 4 mps 730 mmHg 88%
    21:00 +21°C° 0.1 mm 3 mps 730 mmHg 89%
    22:00 +21°C° 0.1 mm 3 mps 730 mmHg 90%
    23:00 +20°C° 0.1 mm 3 mps 730 mmHg 91%

    18 July, Wednesday

    Time Temperature Precipitation Wind Pressure Humidity
    00:00 +20°C° 0 mm 3 mps 730 mmHg 92%
    01:00 +19°C° 0 mm 3 mps 730 mmHg 93%
    02:00 +19°C° 0 mm 3 mps 730 mmHg 93%
    03:00 +19°C° 0 mm 3 mps 730 mmHg 94%
    04:00 +18°C° 0 mm 3 mps 730 mmHg 94%
    05:00 +18°C° 0 mm 3 mps 730 mmHg 95%
    06:00 +19°C° 0 mm 3 mps 731 mmHg 91%
    07:00 +20°C° 0 mm 3 mps 731 mmHg 88%
    08:00 +21°C° 0 mm 4 mps 731 mmHg 84%
    09:00 +23°C° 0 mm 4 mps 731 mmHg 79%
    10:00 +25°C° 0 mm 4 mps 731 mmHg 74%
    11:00 +27°C° 0 mm 4 mps 731 mmHg 69%
    12:00 +27°C° 0 mm 4 mps 731 mmHg 68%
    13:00 +28°C° 0 mm 4 mps 731 mmHg 66%
    14:00 +28°C° 0 mm 4 mps 731 mmHg 65%
    15:00 +28°C° 0.1 mm 4 mps 731 mmHg 67%
    16:00 +28°C° 0.1 mm 4 mps 731 mmHg 68%
    17:00 +28°C° 0.1 mm 4 mps 731 mmHg 70%
    18:00 +27°C° 0.1 mm 3 mps 731 mmHg 76%
    19:00 +25°C° 0.1 mm 3 mps 731 mmHg 81%
    20:00 +24°C° 0.1 mm 3 mps 731 mmHg 87%
    21:00 +23°C° 0 mm 2 mps 731 mmHg 89%
    22:00 +21°C° 0 mm 2 mps 732 mmHg 92%
    23:00 +20°C° 0 mm 2 mps 732 mmHg 94%

    19 July, Thursday

    Time Temperature Precipitation Wind Pressure Humidity
    00:00 +19°C° 0 mm 2 mps 732 mmHg 95%
    01:00 +19°C° 0 mm 2 mps 732 mmHg 96%
    02:00 +19°C° 0 mm 2 mps 732 mmHg 96%
    03:00 +18°C° 0 mm 2 mps 732 mmHg 97%
    04:00 +18°C° 0 mm 2 mps 732 mmHg 97%
    05:00 +18°C° 0 mm 2 mps 732 mmHg 97%
    06:00 +19°C° 0.1 mm 2 mps 732 mmHg 94%
    07:00 +21°C° 0.1 mm 2 mps 733 mmHg 91%
    08:00 +23°C° 0.1 mm 2 mps 733 mmHg 88%
    09:00 +24°C° 0.6 mm 3 mps 733 mmHg 84%
    10:00 +25°C° 0.6 mm 3 mps 733 mmHg 79%
    11:00 +26°C° 0.6 mm 3 mps 733 mmHg 75%
    12:00 +26°C° 0.5 mm 3 mps 733 mmHg 73%
    13:00 +27°C° 0.5 mm 3 mps 733 mmHg 71%
    14:00 +27°C° 0.5 mm 3 mps 733 mmHg 69%
    15:00 +27°C° 0.5 mm 3 mps 733 mmHg 70%
    16:00 +27°C° 0.5 mm 3 mps 733 mmHg 72%
    17:00 +27°C° 0.5 mm 3 mps 733 mmHg 73%
    18:00 +26°C° 0.5 mm 3 mps 733 mmHg 78%
    19:00 +24°C° 0.5 mm 2 mps 733 mmHg 82%
    20:00 +23°C° 0.5 mm 2 mps 733 mmHg 86%
    21:00 +21°C° 0.1 mm 2 mps 733 mmHg 88%
    22:00 +20°C° 0.1 mm 2 mps 734 mmHg 89%
    23:00 +19°C° 0.1 mm 2 mps 734 mmHg 91%

    20 July, Friday

    Time Temperature Precipitation Wind Pressure Humidity
    00:00 +19°C° 0 mm 2 mps 734 mmHg 92%
    01:00 +18°C° 0 mm 2 mps 734 mmHg 93%
    02:00 +18°C° 0 mm 2 mps 734 mmHg 93%
    03:00 +17°C° 0 mm 2 mps 734 mmHg 94%
    04:00 +17°C° 0 mm 2 mps 734 mmHg 94%
    05:00 +17°C° 0 mm 2 mps 734 mmHg 94%
    06:00 +18°C° 0 mm 2 mps 734 mmHg 90%
    07:00 +20°C° 0 mm 2 mps 734 mmHg 86%
    08:00 +21°C° 0 mm 2 mps 734 mmHg 82%
    09:00 +23°C° 0.1 mm 2 mps 734 mmHg 76%
    10:00 +25°C° 0.1 mm 2 mps 734 mmHg 70%
    11:00 +26°C° 0.1 mm 2 mps 734 mmHg 64%
    12:00 +27°C° 0 mm 3 mps 734 mmHg 61%
    13:00 +27°C° 0 mm 3 mps 734 mmHg 58%
    14:00 +28°C° 0 mm 3 mps 734 mmHg 55%
    15:00 +27°C° 0.1 mm 3 mps 734 mmHg 58%
    16:00 +27°C° 0.1 mm 3 mps 734 mmHg 61%
    17:00 +27°C° 0.1 mm 3 mps 734 mmHg 64%
    18:00 +25°C° 0.2 mm 3 mps 734 mmHg 71%
    19:00 +24°C° 0.2 mm 3 mps 734 mmHg 78%
    20:00 +21°C° 0.2 mm 3 mps 734 mmHg 85%
    21:00 +20°C° 0 mm 3 mps 734 mmHg 87%
    22:00 +19°C° 0 mm 2 mps 735 mmHg 90%
    23:00 +17°C° 0 mm 2 mps 735 mmHg 92%
    Show more